Quincy, IL

8:19 AM CST on November 18, 2019 (GMT -0600)
Quincy Regional-Baldwin

Weather History for KUIN - September, 2019

Change the Weather History Date:

Monday, September 9, 2019

  Actual Average Record
Temperature  
Mean Temperature 76 °F 69 °F  
Max Temperature 87 °F 80 °F 100 °F (1945)
Min Temperature 66 °F 59 °F 44 °F (1902)
Degree Days  
Heating Degree Days 0 1  
Month to date heating degree days 0 8  
Since 1 July heating degree days 2 13  
Cooling Degree Days 12 5  
Month to date cooling degree days 55 57  
Year to date cooling degree days 1112 1010  
Growing Degree Days 26 (Base 50)    
Moisture  
Dew Point 69 °F    
Average Humidity 79    
Maximum Humidity 93    
Minimum Humidity 59    
Precipitation  
Precipitation 0.00 in 0.11 in 2.35 in (1926)
Month to date precipitation 0.68 1.00  
Year to date precipitation 31.71 26.75  
Sea Level Pressure  
Sea Level Pressure 30.02 in    
Wind  
Wind Speed 8 mph ()    
Max Wind Speed 14 mph    
Max Gust Speed 23 mph    
Visibility 9.9 miles    
Events      
T = Trace of Precipitation, MM = Missing Value Source: Averaged Metar Reports

Daily Weather History Graph

Daily Weather History Graph

Search for Another Location

Airport or City:

Astronomy

Sep. 09, 2019 Rise Set
Actual Time 6:39 AM CDT 7:23 PM CDT
Civil Twilight 6:12 AM CDT 7:50 PM CDT
Nautical Twilight 5:40 AM CDT 8:23 PM CDT
Astronomical Twilight 5:06 AM CDT 8:56 PM CDT
Moon 5:19 PM CDT (9/9) 2:11 AM CDT (9/9)
Length of Visible Light 13h 38m
Length of Day
12h 43m
Waxing Gibbous, 83% of the Moon is Illuminated
Sep 9
Waxing Gibbous
Sep 13
Full
Sep 21
Last Quarter
Sep 28
New
Oct 5
First Quarter

Hourly Weather History & Observations

Time (CDT) Temp. Heat Index Dew Point Humidity Pressure Visibility Wind Dir Wind Speed Gust Speed Precip Events Conditions
12:54 AM 66.9 °F - 64.0 °F 90% 30.05 in 9.0 mi ESE 9.2 mph - N/A   Clear
1:54 AM 66.9 °F - 64.0 °F 90% 30.06 in 10.0 mi ESE 6.9 mph - N/A   Clear
2:54 AM 66.0 °F - 63.0 °F 90% 30.04 in 10.0 mi SE 8.1 mph - N/A   Clear
3:54 AM 66.0 °F - 63.0 °F 90% 30.03 in 10.0 mi SE 8.1 mph - N/A   Clear
4:54 AM 66.0 °F - 63.0 °F 90% 30.03 in 10.0 mi SSE 9.2 mph - N/A   Clear
5:54 AM 66.0 °F - 63.0 °F 90% 30.04 in 10.0 mi East 8.1 mph - N/A   Clear
6:54 AM 66.0 °F - 63.0 °F 90% 30.05 in 10.0 mi SE 6.9 mph - N/A   Partly Cloudy
7:54 AM 68.0 °F - 64.0 °F 87% 30.06 in 10.0 mi SSE 9.2 mph - N/A   Scattered Clouds
9:54 AM 75.9 °F - 68.0 °F 76% 30.05 in 10.0 mi South 11.5 mph 20.7 mph N/A   Clear
10:54 AM 80.1 °F 82.9 °F 69.1 °F 69% 30.05 in 10.0 mi SSE 11.5 mph 20.7 mph N/A   Clear
11:54 AM 82.0 °F 85.9 °F 70.0 °F 67% 30.04 in 10.0 mi SSE 9.2 mph - N/A   Clear
12:54 PM 84.0 °F 89.6 °F 72.0 °F 67% 30.03 in 10.0 mi South 6.9 mph - N/A   Clear
1:54 PM 86.0 °F 91.5 °F 71.1 °F 61% 30.02 in 10.0 mi South 10.4 mph - N/A   Clear
2:54 PM 87.1 °F 93.6 °F 72.0 °F 61% 30.00 in 10.0 mi South 10.4 mph - N/A   Clear
3:54 PM 86.0 °F 93.0 °F 73.0 °F 65% 29.99 in 10.0 mi SSE 8.1 mph - N/A   Clear
4:54 PM 87.1 °F 95.4 °F 73.9 °F 65% 29.97 in 10.0 mi South 9.2 mph - N/A   Clear
5:54 PM 86.0 °F 93.8 °F 73.9 °F 67% 29.97 in 10.0 mi SSE 8.1 mph - N/A   Clear
6:54 PM 82.9 °F 90.2 °F 75.0 °F 77% 29.97 in 10.0 mi SSE 6.9 mph - N/A   Clear
7:54 PM 78.1 °F - 73.9 °F 87% 29.98 in 9.0 mi SE 5.8 mph - N/A   Clear
8:54 PM 79.0 °F - 73.9 °F 84% 29.99 in 10.0 mi SSE 8.1 mph - N/A   Clear
9:54 PM 79.0 °F - 73.0 °F 82% 30.00 in 10.0 mi SSE 10.4 mph - N/A   Clear
10:54 PM 78.1 °F - 73.0 °F 84% 30.00 in 9.0 mi SSE 9.2 mph - N/A   Clear
11:54 PM 79.0 °F - 71.1 °F 77% 30.00 in 10.0 mi SSE 10.4 mph - N/A   Clear